CARTOSAT-3

Last updated on Sun Nov 16 2025 00:03:21 GMT+0000 (Coordinated Universal Time)

1 44804U 19081A 25319.49439443 .00005520 00000+0 26533-3 0 9992 2 44804 97.4627 19.4168 0012911 176.7735 183.3585 15.19157062331025
UTC large
Height (km)
Speed (km/s)
/
Latitude / Longitude
Inclination (degrees)
Orbital Period (minutes)
Azimuth
Elevation
Range (km)
Doppler Factor

Next 0 passes for location: London (51.5072 / 0.1276)

Sorry there are no passes over London.